Regional Weather Roundup
Issued by NWS Cleveland, OH

Home | Current Version | Previous Version | Graphics & Text | Print | Product List | Glossary On
Versions: 1 2 3 4 5 6 7 8 9 10 11 12 13 14 15 16 17 18 19 20 21 22 23 24 25 26 27 28 29 30 31 32 33 34 35 36 37 38 39 40 41 42 43 44 45 46 47 48 49 50
000
ASUS41 KCLE 222210
RWRCLE
OHIO REGIONAL WEATHER ROUNDUP
NATIONAL WEATHER SERVICE CLEVELAND, OH
600 PM EDT SUN OCT 22 2017

NOTE: "FAIR" INDICATES FEW OR NO CLOUDS BELOW 12,000 FEET WITH NO
SIGNIFICANT WEATHER AND/OR OBSTRUCTIONS TO VISIBILITY.

OHZ001>008-015>018-024>027-034-035-043-044-222300-
   NORTHWEST OHIO

CITY           SKY/WX    TMP DP  RH WIND       PRES   REMARKS
DEFIANCE       PTCLDY    75  53  46 S13       30.04R
FINDLAY        PTCLDY    76  49  38 S18       30.06F
TOLEDO EXPRESS CLEAR     77  55  46 S9        30.04R
TOLEDO EXEC    CLEAR     76  53  44 S12       30.06S
LIMA           CLOUDY    74  53  48 S18       30.07F
$$

OHZ009>014-019>023-028>033-038-089-222300-
   NORTHEAST OHIO

CITY           SKY/WX    TMP DP  RH WIND       PRES   REMARKS
CLE-HOPKINS    MOCLDY    76  46  34 S16       30.14R
CLE-LAKEFRONT  CLOUDY    76  48  37 SE12      30.10S
CUY CO. ARPT   PTCLDY    75  50  41 S9        30.13S
LORAIN-ELYRIA  PTCLDY    72  43  35 S8        30.12R
ASHTABULA      CLOUDY    72  48  42 S9        30.16S
AKRON-CANTON   CLOUDY    72  50  45 S9        30.16R
WOOSTER        PTCLDY    71  46  40 S9        30.16R
MANSFIELD      PTCLDY    72  50  45 S13       30.15R
YOUNGSTOWN     MOCLDY    73  49  42 S7        30.17R
$$

OHZ042-051>053-060>062-070>072-077>081-222300-
  SOUTHWEST OHIO

CITY           SKY/WX    TMP DP  RH WIND       PRES   REMARKS
CINC-COVINGTON MOCLDY    69  54  58 S9        30.10F
CINC-LUNKEN    MOCLDY    70  53  54 S8        30.11S
HAMILTON       MOCLDY    74  52  46 S8        30.10F
DAYTON         MOCLDY    71  50  47 S16       30.11S
WRIGHT-PAT AFB NOT AVBL
DAYTON GENERAL PTCLDY    70  50  49 S7        30.10F
WILMINGTON     MOCLDY    70  50  49 S6        30.13S
$$

OHZ036-037-039>041-045>050-054>059-063>069-073>076-082>088-222300-
  CENTRAL AND SOUTHEAST OHIO

CITY           SKY/WX    TMP DP  RH WIND       PRES   REMARKS
COLUMBUS       CLOUDY    74  50  42 S7        30.13S
OSU AIRPORT    CLOUDY    72  51  47 S8        30.13S
BOLTON FIELD   CLEAR     72  52  49 S6        30.14F
RICKENBACK AFB CLOUDY    71  50  47 S5        30.14R
NEWARK         CLOUDY    73  49  42 SE3       30.14S
MARION         CLOUDY    73  48  41 S18G24    30.12S
LANCASTER      CLOUDY    71  53  52 S6        30.15S
ZANESVILLE     CLOUDY    71  50  47 S7        30.16S
NEW PHILLY     NOT AVBL
$$




USA.gov is the U.S. government's official web portal to all federal, state and local government web resources and services.